Weather History for Wheeler AAF, HI

Change the Weather History Date:

Monday, July 1, 2013

  Actual Average Record
Temperature  
Mean Temperature 74 °F -  
Max Temperature 81 °F 79 °F 84 °F (2002)
Min Temperature 67 °F 66 °F 64 °F (1998)
Cooling Degree Days 9    
Growing Degree Days 24 (Base 50)    
Moisture  
Dew Point 66 °F    
Average Humidity 78    
Maximum Humidity 90    
Minimum Humidity 57    
Precipitation  
Precipitation 0.01 in - - ()
Sea Level Pressure  
Sea Level Pressure 29.99 in    
Wind  
Wind Speed 6 mph (NNE)    
Max Wind Speed 15 mph    
Max Gust Speed 20 mph    
Visibility 10 miles    
Events      
Averages and records for this station are not official NWS values.
T = Trace of Precipitation, MM = Missing Value Source: NWS Daily Summary

Daily Weather History Graph

Daily Weather History Graph

Search for Another Location

Airport:

Trip Planner

Search our weather history database for the weather conditions in past years. The results will help you decide how hot, cold, wet, or windy it might be!

Date:

Astronomy

Jul. 01, 2013 Rise Set
Actual Time 5:53 AM HST 7:18 PM HST
Civil Twilight 5:28 AM HST 7:43 PM HST
Nautical Twilight 4:59 AM HST 8:13 PM HST
Astronomical Twilight 4:28 AM HST 8:43 PM HST
Moon 1:03 AM HST (7/1) 2:06 PM HST (7/1)
Length of Visible Light 14h 14m
Length of Day
13h 25m
Waning Crescent, 33% of the Moon is Illuminated
Jul 1
Waning Crescent
Jul 7
New
Jul 15
First Quarter
Jul 22
Full
Jul 29
Last Quarter

Hourly Weather History & Observations

Time (HST) Temp. Heat Index Dew Point Humidity Pressure Visibility Wind Dir Wind Speed Gust Speed Precip Events Conditions
12:55 AM 68.5 °F - 63.9 °F 85% 30.00 in 10.0 mi West 3.5 mph - N/A   Overcast
1:55 AM 69.3 °F - 64.6 °F 85% 29.99 in 10.0 mi West 4.6 mph - N/A   Overcast
2:55 AM 68.9 °F - 64.2 °F 85% 29.98 in 10.0 mi NNW 4.6 mph - N/A   Partly Cloudy
3:55 AM 70.2 °F - 64.6 °F 82% 29.98 in 10.0 mi NNW 3.5 mph - N/A   Partly Cloudy
4:49 AM 68.0 °F - 62.6 °F 83% 29.98 in 10.0 mi NW 5.8 mph - N/A   Light Drizzle
4:55 AM 68.2 °F - 64.6 °F 88% 29.99 in 10.0 mi NNW 6.9 mph - 0.00 in   Light Drizzle
5:15 AM 68.0 °F - 64.4 °F 88% 29.98 in 10.0 mi WSW 3.5 mph - N/A   Mostly Cloudy
5:54 AM 68.0 °F - 64.4 °F 88% 29.99 in 10.0 mi Calm Calm - N/A   Light Drizzle
5:55 AM 67.3 °F - 64.4 °F 90% 29.99 in 10.0 mi Calm Calm - 0.00 in   Light Drizzle
6:19 AM 68.0 °F - 64.4 °F 88% 30.00 in 10.0 mi WNW 3.5 mph - N/A   Mostly Cloudy
6:55 AM 68.2 °F - 65.1 °F 90% 30.01 in 10.0 mi WNW 6.9 mph - 0.01 in   Scattered Clouds
7:55 AM 73.4 °F - 67.3 °F 81% 30.01 in 10.0 mi North 3.5 mph - N/A   Clear
8:55 AM 76.1 °F - 66.2 °F 71% 30.02 in 10.0 mi ENE 6.9 mph - N/A   Mostly Cloudy
9:55 AM 76.6 °F - 66.0 °F 70% 30.02 in 10.0 mi East 11.5 mph - N/A   Overcast
10:55 AM 79.2 °F - 66.6 °F 65% 30.01 in 10.0 mi East 9.2 mph - N/A   Scattered Clouds
11:55 AM 79.5 °F - 66.4 °F 64% 30.00 in 10.0 mi ENE 8.1 mph - N/A   Partly Cloudy
12:06 PM 78.8 °F - 66.2 °F 65% 30.01 in 10.0 mi ENE 11.5 mph - N/A   Light Drizzle
12:15 PM 78.8 °F - 66.2 °F 65% 30.01 in 10.0 mi NNE 10.4 mph - N/A   Mostly Cloudy
12:35 PM 78.8 °F - 66.2 °F 65% 30.00 in 10.0 mi NE 12.7 mph - N/A   Light Drizzle
12:44 PM 78.8 °F - 68.0 °F 69% 30.00 in 10.0 mi NE 10.4 mph - N/A   Overcast
12:55 PM 78.8 °F - 66.6 °F 66% 29.99 in 10.0 mi ENE 10.4 mph 19.6 mph 0.00 in   Mostly Cloudy
1:55 PM 80.4 °F 82.1 °F 64.6 °F 58% 29.97 in 10.0 mi ENE 10.4 mph 18.4 mph N/A   Scattered Clouds
2:55 PM 81.3 °F 83.0 °F 64.9 °F 57% 29.97 in 10.0 mi NE 15.0 mph - N/A   Mostly Cloudy
4:55 PM 76.3 °F - 66.6 °F 72% 29.97 in 10.0 mi NNE 8.1 mph - N/A   Mostly Cloudy
5:05 PM 75.2 °F - 66.2 °F 73% 29.97 in 10.0 mi NE 10.4 mph - N/A   Mostly Cloudy
5:12 PM 75.2 °F - 66.2 °F 73% 29.97 in 10.0 mi Variable 4.6 mph - N/A   Mostly Cloudy
5:24 PM 75.2 °F - 66.2 °F 73% 29.97 in 10.0 mi Variable 4.6 mph - N/A   Mostly Cloudy
5:55 PM 75.2 °F - 66.7 °F 75% 29.97 in 10.0 mi NNE 10.4 mph - N/A   Mostly Cloudy
6:55 PM 73.4 °F - 66.7 °F 80% 29.98 in 10.0 mi ENE 6.9 mph - N/A   Scattered Clouds
7:12 PM 73.4 °F - 66.2 °F 78% 29.98 in 9.0 mi NE 8.1 mph - N/A   Light Drizzle
7:20 PM 73.4 °F - 66.2 °F 78% 29.98 in 10.0 mi NNE 6.9 mph - N/A   Mostly Cloudy
7:39 PM 73.4 °F - 66.2 °F 78% 29.99 in 10.0 mi NE 10.4 mph - N/A   Light Drizzle
7:50 PM 71.6 °F - 66.2 °F 83% 29.99 in 10.0 mi NE 10.4 mph - N/A   Scattered Clouds
7:55 PM 72.0 °F - 66.7 °F 84% 29.99 in 10.0 mi NE 8.1 mph - 0.00 in   Partly Cloudy
8:55 PM 70.9 °F - 65.7 °F 83% 29.99 in 10.0 mi ENE 3.5 mph - N/A   Scattered Clouds
9:51 PM 71.6 °F - 66.2 °F 83% 29.99 in 10.0 mi NNW 6.9 mph - N/A   Light Drizzle
9:55 PM 71.4 °F - 65.8 °F 82% 29.99 in 10.0 mi NNW 8.1 mph - 0.00 in   Light Drizzle
10:04 PM 71.6 °F - 66.2 °F 83% 29.99 in 10.0 mi NNW 5.8 mph - N/A   Mostly Cloudy
10:30 PM 71.6 °F - 66.2 °F 83% 29.99 in 10.0 mi Calm Calm - N/A   Light Drizzle
10:55 PM 71.2 °F - 66.6 °F 85% 29.99 in 10.0 mi NW 3.5 mph - 0.00 in   Light Drizzle
10:57 PM 71.6 °F - 66.2 °F 83% 29.99 in 10.0 mi NW 3.5 mph - N/A   Mostly Cloudy
11:09 PM 71.6 °F - 66.2 °F 83% 29.99 in 10.0 mi Variable 5.8 mph - N/A   Light Drizzle
11:15 PM 71.6 °F - 66.2 °F 83% 29.99 in 10.0 mi North 4.6 mph - N/A   Mostly Cloudy
11:24 PM 71.6 °F - 66.2 °F 83% 29.99 in 10.0 mi NNW 6.9 mph - N/A   Light Drizzle
11:34 PM 71.6 °F - 66.2 °F 83% 29.99 in 10.0 mi NE 3.5 mph - N/A   Overcast
11:55 PM 72.0 °F - 66.4 °F 83% 29.98 in 10.0 mi NE 4.6 mph - 0.00 in   Overcast